Location: *
(45.9500°N, 9.0833°E)
Time: 14:17:55
(UTC+00:00)

Cosmos 1500 - Pass Details

Date: 03 March 2021
Orbit: 499 x 517 km, 82.5° (Epoch: 14 April)

Event Time Altitude Azimuth Distance (km) Brightness Sun altitude
Rises 18:47:00 0° 197° (SSW) 2,579 6.9 -17.1°
Reaches altitude 10° 18:49:08 10° 202° (SSW) 1,700 6.0 -17.4°
Maximum altitude 18:52:47 56° 281° (W) 600 3.8 -18.1°
Drops below altitude 10° 18:56:29 10° 1° (N) 1,715 5.9 -18.7°
Sets 18:58:39 0° 5° (N) 2,605 6.8 -19.1°
